Location: Chiroubles
(46.1812°N, 4.6660°E)
Time: 00:36:42
(UTC+00:00)

SL-08 R/B - Pass Details

Date: 15 August 2020
Orbit: 945 x 1007 km, 82.9° (Epoch: 19 September)

Event Time Altitude Azimuth Distance (km) Brightness Sun altitude
Exits shadow 21:59:41 56° 192° (SSW) 1,118 4.5 -25.6°
Maximum altitude 22:01:07 87° 277° (W) 954 4.3 -25.7°
Drops below altitude 10° 22:07:16 10° 8° (N) 2,688 7.5 -26.2°
Sets 22:09:47 0° 9° (N) 3,644 8.3 -26.4°
